Location: Home
(42.5358°N, 72.7383°W)
Time: 13:47:59
(UTC-05:00)

Explorer 11/Cluster Stage 4 - Pass Details

Date: 19 December 2025
Orbit: 463 x 1179 km, 28.8° (Epoch: 21 January)

Event Time Altitude Azimuth Distance (km) Brightness Sun altitude
Rises 19:09:32 0° 255° (WSW) 4,058 11.4 -30.2°
Reaches altitude 10° 19:13:02 10° 243° (WSW) 3,080 10.4 -30.8°
Maximum altitude 19:18:53 24° 194° (SSW) 2,144 8.9 -31.9°
Enters shadow 19:20:35 22° 174° (S) 2,203 8.8 -32.2°
